Погода в Севериках

Россия / Псковская область     55°49′48″N   30°35′54″E
темп.,
°C
ветер,
м/с
пор.,
м/с
влажн.,
%
обл.,
%
осадки,
мм/ч
давл.,
гПа
погр.,
м
18 января, вт
вт1800:00−6ссз81683100 0.2 9971296
03:00−6ссз81678100 0.3 10021412
06:00−6ссз71478100 0.0 10051206
09:00−6ссз61482100 0.1 10101108
12:00−6ссз61384100 0.1 10131151
15:00−5ссз61382100 0.1 10161029
18:00−6ссз4128441 0.0 1020709
21:00−9сз399556 0.0 1022230
19 января, ср
ср1900:00−10з2797100 0.0 1023120
03:00−7з2892100 0.0 1022203
06:00−5зюз31096100 0.4 1020346
09:00−4юз4119383 1.3 1018371
12:00−2юз413895 0.0 1016520
15:00−2юз41092100 0.0 1014545
18:00−1юз41194100 0.1 1012498
21:00−1юз41194100 0.1 1010542
20 января, чт
чт2000:00
03:00−1ююз51195100 0.0 1005473
06:00−1ю51295100 0.0 1002489
09:00
12:000ююз61289100 0.0 998902
15:00−1ююз51196100 1.3 997683
18:00−2ююз41094100 0.6 997529
21:00−2ю41094100 0.6 997527
21 января, пт
пт2100:00−3ю41194100 0.1 996487
03:00−2ю599198 0.1 996863
06:00−7ю399392 0.0 996280
09:00−9ююв399772 0.1 997209
12:00−7юв399598 0.0 997309
15:00−5юв489397 0.1 997419
18:00−6вюв3895100 0.1 998292
21:00−7в269677 0.3 1000192
22 января, сб
сб2200:00−11св239999 0.0 100358
03:00−9св2598100 0.1 1005116
06:00−8ссв269770 0.1 1007137
09:00−10ссв259882 0.1 101089
12:00−7ссв359498 0.1 1013251
15:00−5ссв3589100 0.1 1015481
18:00−6ссв3588100 0.1 1017431
21:00−7с2595100 0.2 1019243